Starlink 31907

operational
NORAD ID: 59797 Int'l Des: 2024-093 Owner: SPXS Country: US Constellation: starlink
LEOCIRCULAR

About Starlink 31907

Description loading...

Live Position

Loading 3D Globe...

Upcoming Passes

Altitude History

Altitude vs Time

uPlot chart will show altitude changes over time

Two-Line Element Set

1 59797U 24093R 25353.25566959 .00002236 00000-0 90744-4 0 9991
2 59797 43.0039 303.1832 0001044 266.6604 93.4129 15.27578608 90395
Epoch: Dec 19, 2025 • Age: 21 hours

Current Status

Altitude 486.9 km
Velocity 7.63 km/s
Sub-Earth Point 43.01°N, 110.13°W
Launch Date May 18, 2024
Age 1.5 years
Type internet

Technical Details

Classification Payload
Mass 730.00 kg
Dry Mass 700.00 kg
Total Mass 730.00 kg
Length 0.30 m
Diameter 4.10 m
Span 29.00 m
Shape Box + pan
Manufacturer SPXS
Bus Type Starlink V2M
Phase Status In Orbit
Owner/State SPXS/US

Large Constellations

Loading constellations...